{"data":{"norad_id":64237,"epoch":"2026-05-25T00:04:19.826400Z","epoch_age_seconds":88883,"freshness":"FRESH","line1":"1 64237U 25119E   26145.00300725  .00240358  00000+0  18238-2 0  9990","line2":"2 64237  43.0006 109.4063 0001586 264.8275  95.2411 15.70829262 57246","mean_motion":15.70829262,"eccentricity":0.0001586,"inclination_deg":43.0006,"raan_deg":109.4063,"arg_perigee_deg":264.8275,"mean_anomaly_deg":95.2411,"bstar":0.0018238,"rev_number":5724,"period_min":91.671325129669,"perigee_km":355.45763544443,"apogee_km":357.59387046967,"semimajor_km":6734.662752957,"source":"CELESTRAK","updated_at":"2026-05-25T13:38:20.351438Z"}}